Private Wetterstation Wechselburg
Wetterdaten: Sonntag, 13.11.2011
Datum Zeit Temp. +2m Bodentemp. Temp.+5cm Temp. Wind Windchill X Diff Temp. Feuchte +2m Feuchte +5cm Sonnenschein Luftdruck Regen Wind Richtung Richtung Sonnenschein UV Taupunkt Windchill Windben
13.11.2011 00:00 -2,4 C 10,8 C -2,3 C -2,7 C -3,4 C 0,0 C 90 % 91 % 0 % 1038,1 hPa 0,0 l/m 0,0 km/h (0 Bft) O 90 0 min 0,0 UV-I -3,8 C -3,4 C 0,0 km/h (0 Bft)
13.11.2011 00:10 -2,5 C 10,8 C -2,1 C -2,9 C -3,7 C 0,0 C 90 % 91 % 0 % 1038,1 hPa 0,0 l/m 0,0 km/h (0 Bft) N 0 0 min 0,0 UV-I -3,9 C -3,7 C 0,0 km/h (0 Bft)
13.11.2011 00:20 -2,7 C 10,8 C -2,5 C -3,0 C -3,7 C 0,0 C 90 % 90 % 0 % 1037,8 hPa 0,0 l/m 0,0 km/h (0 Bft) SO 135 0 min 0,0 UV-I -4,1 C -3,7 C 0,0 km/h (0 Bft)
13.11.2011 00:25 -2,7 C 10,8 C -2,3 C -2,9 C -3,2 C 0,0 C 90 % 91 % 0 % 1037,8 hPa 0,0 l/m 0,0 km/h (0 Bft) W-SW 247 0 min 0,0 UV-I -4,1 C -3,2 C 0,0 km/h (0 Bft)
13.11.2011 00:30 -2,7 C 10,8 C -2,3 C -2,9 C -3,4 C 0,0 C 90 % 91 % 0 % 1037,8 hPa 0,0 l/m 0,0 km/h (0 Bft) W-SW 247 0 min 0,0 UV-I -4,1 C -3,4 C 0,0 km/h (0 Bft)
13.11.2011 00:35 -2,7 C 10,8 C -2,4 C -3,0 C -3,7 C 0,0 C 90 % 91 % 0 % 1037,8 hPa 0,0 l/m 0,0 km/h (0 Bft) W-SW 247 0 min 0,0 UV-I -4,1 C -3,7 C 0,0 km/h (0 Bft)
13.11.2011 00:40 -2,9 C 10,8 C -2,5 C -3,2 C -3,8 C 0,0 C 90 % 90 % 0 % 1037,8 hPa 0,0 l/m 0,0 km/h (0 Bft) W-SW 247 0 min 0,0 UV-I -4,3 C -3,8 C 0,0 km/h (0 Bft)
13.11.2011 00:45 -2,9 C 10,8 C -2,5 C -3,3 C -4,0 C 0,0 C 90 % 90 % 0 % 1037,8 hPa 0,0 l/m 0,0 km/h (0 Bft) W-SW 247 0 min 0,0 UV-I -4,3 C -4,0 C 0,0 km/h (0 Bft)
13.11.2011 00:50 -2,9 C 10,7 C -2,5 C -3,3 C -4,0 C 0,0 C 90 % 91 % 0 % 1037,8 hPa 0,0 l/m 0,0 km/h (0 Bft) W-SW 247 0 min 0,0 UV-I -4,3 C -4,0 C 0,0 km/h (0 Bft)
13.11.2011 00:55 -2,9 C 10,7 C -2,5 C -3,3 C -4,0 C 0,0 C 90 % 91 % 0 % 1037,8 hPa 0,0 l/m 0,0 km/h (0 Bft) W-SW 247 0 min 0,0 UV-I -4,3 C -4,0 C 0,0 km/h (0 Bft)
13.11.2011 01:00 -2,9 C 10,7 C -2,5 C -3,3 C -4,0 C 0,0 C 90 % 90 % 0 % 1038,1 hPa 0,0 l/m 0,0 km/h (0 Bft) S-SW 202 0 min 0,0 UV-I -4,3 C -4,0 C 0,0 km/h (0 Bft)
13.11.2011 01:04 -3,1 C 10,7 C -2,7 C -3,4 C -4,1 C 0,0 C 90 % 90 % 0 % 1038,1 hPa 0,0 l/m 0,0 km/h (0 Bft) W-SW 247 0 min 0,0 UV-I -4,5 C -4,1 C 0,0 km/h (0 Bft)
13.11.2011 01:09 -3,1 C 10,7 C -2,7 C -3,4 C -4,1 C 0,0 C 90 % 90 % 0 % 1038,1 hPa 0,0 l/m 0,0 km/h (0 Bft) S 180 0 min 0,0 UV-I -4,5 C -4,1 C 0,0 km/h (0 Bft)
13.11.2011 01:14 -3,1 C 10,7 C -2,8 C -3,4 C -4,0 C 0,0 C 90 % 91 % 0 % 1038,1 hPa 0,0 l/m 0,0 km/h (0 Bft) SW 225 0 min 0,0 UV-I -4,5 C -4,0 C 0,0 km/h (0 Bft)
13.11.2011 01:17 -3,1 C 10,7 C -2,8 C -3,4 C -4,0 C 0,0 C 90 % 91 % 0 % 1038,1 hPa 0,0 l/m 0,0 km/h (0 Bft) SW 225 0 min 0,0 UV-I -4,5 C -4,0 C 0,0 km/h (0 Bft)
13.11.2011 01:20 -3,1 C 10,7 C -2,8 C -3,4 C -4,0 C 0,0 C 90 % 91 % 0 % 1038,1 hPa 0,0 l/m 0,0 km/h (0 Bft) W 270 0 min 0,0 UV-I -4,5 C -4,0 C 0,0 km/h (0 Bft)
13.11.2011 01:25 -3,2 C 10,7 C -2,7 C -3,5 C -4,0 C 0,0 C 90 % 91 % 0 % 1038,1 hPa 0,0 l/m 0,0 km/h (0 Bft) W 270 0 min 0,0 UV-I -4,6 C -4,0 C 0,0 km/h (0 Bft)
13.11.2011 01:30 -3,2 C 10,7 C -2,7 C -3,5 C -4,2 C 0,0 C 90 % 91 % 0 % 1038,1 hPa 0,0 l/m 0,0 km/h (0 Bft) W 270 0 min 0,0 UV-I -4,6 C -4,2 C 0,0 km/h (0 Bft)
13.11.2011 01:35 -3,3 C 10,7 C -2,7 C -3,7 C -4,4 C 0,0 C 90 % 91 % 0 % 1038,1 hPa 0,0 l/m 0,0 km/h (0 Bft) W-SW 247 0 min 0,0 UV-I -4,7 C -4,4 C 0,0 km/h (0 Bft)
13.11.2011 01:40 -3,3 C 10,7 C -2,8 C -3,7 C -4,4 C 0,0 C 90 % 91 % 0 % 1038,1 hPa 0,0 l/m 0,0 km/h (0 Bft) W-SW 247 0 min 0,0 UV-I -4,7 C -4,4 C 0,0 km/h (0 Bft)
13.11.2011 01:45 -3,3 C 10,6 C -2,9 C -3,7 C -4,4 C 0,0 C 90 % 90 % 0 % 1038,1 hPa 0,0 l/m 0,0 km/h (0 Bft) W-NW 292 0 min 0,0 UV-I -4,7 C -4,4 C 0,0 km/h (0 Bft)
13.11.2011 01:50 -3,3 C 10,6 C -2,9 C -3,6 C -4,3 C 0,0 C 90 % 90 % 0 % 1038,1 hPa 0,0 l/m 0,0 km/h (0 Bft) W-NW 292 0 min 0,0 UV-I -4,7 C -4,3 C 0,0 km/h (0 Bft)
13.11.2011 01:55 -3,3 C 10,6 C -2,9 C -3,7 C -4,4 C 0,0 C 90 % 90 % 0 % 1038,1 hPa 0,0 l/m 0,0 km/h (0 Bft) W-NW 292 0 min 0,0 UV-I -4,7 C -4,4 C 0,0 km/h (0 Bft)
13.11.2011 02:00 -3,3 C 10,6 C -3,0 C -3,6 C -4,2 C 0,0 C 90 % 90 % 0 % 1038,1 hPa 0,0 l/m 0,0 km/h (0 Bft) W-NW 292 0 min 0,0 UV-I -4,7 C -4,2 C 0,0 km/h (0 Bft)
13.11.2011 02:04 -3,2 C 10,6 C -2,9 C -3,5 C -4,0 C 0,0 C 90 % 90 % 0 % 1038,1 hPa 0,0 l/m 0,0 km/h (0 Bft) S 180 0 min 0,0 UV-I -4,6 C -4,0 C 0,0 km/h (0 Bft)
13.11.2011 02:09 -3,2 C 10,6 C -2,9 C -3,4 C -3,9 C 0,0 C 90 % 90 % 0 % 1038,1 hPa 0,0 l/m 0,0 km/h (0 Bft) W 270 0 min 0,0 UV-I -4,6 C -3,9 C 0,0 km/h (0 Bft)
13.11.2011 02:14 -3,2 C 10,6 C -2,9 C -3,5 C -4,1 C 0,0 C 90 % 91 % 0 % 1038,1 hPa 0,0 l/m 0,0 km/h (0 Bft) W-NW 292 0 min 0,0 UV-I -4,6 C -4,1 C 0,0 km/h (0 Bft)
13.11.2011 02:18 -3,2 C 10,6 C -2,9 C -3,5 C -4,1 C 0,0 C 90 % 91 % 0 % 1038,1 hPa 0,0 l/m 0,0 km/h (0 Bft) W-NW 292 0 min 0,0 UV-I -4,6 C -4,1 C 0,0 km/h (0 Bft)
13.11.2011 02:25 -3,3 C 10,6 C -2,9 C -3,7 C -4,6 C 0,0 C 90 % 90 % 0 % 1037,7 hPa 0,0 l/m 0,0 km/h (0 Bft) NW 315 0 min 0,0 UV-I -4,7 C -4,6 C 0,0 km/h (0 Bft)
13.11.2011 02:30 -3,3 C 10,6 C -3,1 C -3,7 C -4,6 C 0,0 C 90 % 90 % 0 % 1037,7 hPa 0,0 l/m 0,0 km/h (0 Bft) NW 315 0 min 0,0 UV-I -4,7 C -4,6 C 0,0 km/h (0 Bft)
13.11.2011 02:35 -3,5 C 10,5 C -3,1 C -3,9 C -4,6 C 0,0 C 90 % 90 % 0 % 1037,7 hPa 0,0 l/m 0,0 km/h (0 Bft) W-SW 247 0 min 0,0 UV-I -4,9 C -4,6 C 0,0 km/h (0 Bft)
13.11.2011 02:40 -3,3 C 10,5 C -2,9 C -3,7 C -4,5 C 0,0 C 90 % 91 % 0 % 1037,7 hPa 0,0 l/m 0,3 km/h (0 Bft) W-SW 247 0 min 0,0 UV-I -4,7 C -4,5 C 0,0 km/h (0 Bft)
13.11.2011 02:45 -3,5 C 10,5 C -2,9 C -3,9 C -4,6 C 0,0 C 90 % 91 % 0 % 1037,7 hPa 0,0 l/m 0,3 km/h (0 Bft) W 270 0 min 0,0 UV-I -4,9 C -4,6 C 0,0 km/h (0 Bft)
13.11.2011 02:50 -3,5 C 10,5 C -2,9 C -3,9 C -4,6 C 0,0 C 90 % 90 % 0 % 1037,7 hPa 0,0 l/m 0,0 km/h (0 Bft) W 270 0 min 0,0 UV-I -4,9 C -4,6 C 0,0 km/h (0 Bft)
13.11.2011 02:55 -3,6 C 10,5 C -3,1 C -4,0 C -4,7 C 0,0 C 90 % 90 % 0 % 1037,7 hPa 0,0 l/m 0,0 km/h (0 Bft) W 270 0 min 0,0 UV-I -5,0 C -4,7 C 0,0 km/h (0 Bft)
13.11.2011 03:00 -3,7 C 10,5 C -3,1 C -4,0 C -4,7 C 0,0 C 90 % 90 % 0 % 1037,7 hPa 0,0 l/m 0,0 km/h (0 Bft) W 270 0 min 0,0 UV-I -5,1 C -4,7 C 0,0 km/h (0 Bft)
13.11.2011 03:05 -3,7 C 10,5 C -3,2 C -4,1 C -4,8 C 0,0 C 90 % 90 % 0 % 1037,7 hPa 0,0 l/m 0,0 km/h (0 Bft) W 270 0 min 0,0 UV-I -5,1 C -4,8 C 0,0 km/h (0 Bft)
13.11.2011 03:10 -3,7 C 10,5 C -3,2 C -4,1 C -4,9 C 0,0 C 90 % 90 % 0 % 1037,7 hPa 0,0 l/m 0,0 km/h (0 Bft) W 270 0 min 0,0 UV-I -5,1 C -4,9 C 0,0 km/h (0 Bft)
13.11.2011 03:15 -3,7 C 10,5 C -3,3 C -4,0 C -4,7 C 0,0 C 90 % 90 % 0 % 1037,7 hPa 0,0 l/m 0,0 km/h (0 Bft) O 90 0 min 0,0 UV-I -5,1 C -4,7 C 0,0 km/h (0 Bft)
13.11.2011 03:20 -3,5 C 10,5 C -3,3 C -3,8 C -4,5 C 0,0 C 91 % 90 % 0 % 1037,3 hPa 0,0 l/m 0,0 km/h (0 Bft) O-NO 67 0 min 0,0 UV-I -4,8 C -4,5 C 0,0 km/h (0 Bft)
13.11.2011 03:25 -3,6 C 10,5 C -3,3 C -3,9 C -4,5 C 0,0 C 91 % 90 % 0 % 1037,3 hPa 0,0 l/m 0,0 km/h (0 Bft) O 90 0 min 0,0 UV-I -4,8 C -4,5 C 0,0 km/h (0 Bft)
13.11.2011 03:30 -3,6 C 10,5 C -3,3 C -3,9 C -4,5 C 0,0 C 91 % 90 % 0 % 1037,3 hPa 0,0 l/m 0,0 km/h (0 Bft) O-NO 67 0 min 0,0 UV-I -4,8 C -4,5 C 0,0 km/h (0 Bft)
13.11.2011 03:35 -3,5 C 10,5 C -3,3 C -3,8 C -4,5 C 0,0 C 91 % 91 % 0 % 1037,3 hPa 0,0 l/m 0,0 km/h (0 Bft) O-NO 67 0 min 0,0 UV-I -4,8 C -4,5 C 0,0 km/h (0 Bft)
13.11.2011 03:40 -3,5 C 10,5 C -3,3 C -3,8 C -4,5 C 0,0 C 91 % 91 % 0 % 1037,3 hPa 0,0 l/m 0,0 km/h (0 Bft) O-NO 67 0 min 0,0 UV-I -4,8 C -4,5 C 0,0 km/h (0 Bft)
13.11.2011 03:45 -3,6 C 10,4 C -3,4 C -3,9 C -4,6 C 0,0 C 91 % 91 % 0 % 1037,3 hPa 0,0 l/m 0,0 km/h (0 Bft) O-NO 67 0 min 0,0 UV-I -4,8 C -4,6 C 0,0 km/h (0 Bft)
13.11.2011 03:50 -3,7 C 10,4 C -3,3 C -4,0 C -4,7 C 0,0 C 90 % 91 % 0 % 1037,3 hPa 0,0 l/m 0,0 km/h (0 Bft) O-NO 67 0 min 0,0 UV-I -5,1 C -4,7 C 0,0 km/h (0 Bft)
13.11.2011 03:55 -3,7 C 10,4 C -3,3 C -4,1 C -4,8 C 0,0 C 90 % 91 % 0 % 1037,3 hPa 0,0 l/m 0,0 km/h (0 Bft) O-NO 67 0 min 0,0 UV-I -5,1 C -4,8 C 0,0 km/h (0 Bft)
13.11.2011 04:00 -3,7 C 10,4 C -3,3 C -4,1 C -4,9 C 0,0 C 90 % 91 % 0 % 1036,7 hPa 0,0 l/m 0,0 km/h (0 Bft) O-NO 67 0 min 0,0 UV-I -5,1 C -4,9 C 0,0 km/h (0 Bft)
13.11.2011 04:15 -4,0 C 10,4 C -3,5 C -4,4 C -5,1 C 0,0 C 90 % 91 % 0 % 1036,7 hPa 0,0 l/m 0,0 km/h (0 Bft) O-NO 67 0 min 0,0 UV-I -5,4 C -5,1 C 0,0 km/h (0 Bft)
13.11.2011 04:16 -4,0 C 10,4 C -3,5 C -4,4 C -5,1 C 0,0 C 90 % 91 % 0 % 1036,7 hPa 0,0 l/m 0,0 km/h (0 Bft) O-NO 67 0 min 0,0 UV-I -5,4 C -5,1 C 0,0 km/h (0 Bft)
13.11.2011 04:20 -4,0 C 10,4 C -3,3 C -4,3 C -5,0 C 0,0 C 90 % 91 % 0 % 1036,7 hPa 0,0 l/m 0,0 km/h (0 Bft) O-NO 67 0 min 0,0 UV-I -5,4 C -5,0 C 0,0 km/h (0 Bft)
13.11.2011 04:25 -3,9 C 10,4 C -3,6 C -4,2 C -4,9 C 0,0 C 90 % 90 % 0 % 1036,7 hPa 0,0 l/m 0,3 km/h (0 Bft) O-SO 112 0 min 0,0 UV-I -5,3 C -4,9 C 0,0 km/h (0 Bft)
13.11.2011 04:30 -3,9 C 10,4 C -3,7 C -4,2 C -4,7 C 0,0 C 90 % 90 % 0 % 1036,7 hPa 0,0 l/m 0,6 km/h (0 Bft) O-NO 67 0 min 0,0 UV-I -5,3 C -4,7 C 1,6 km/h (1 Bft)
13.11.2011 04:35 -3,7 C 10,4 C -3,7 C -4,0 C -4,6 C 0,0 C 91 % 91 % 0 % 1036,7 hPa 0,0 l/m 0,5 km/h (0 Bft) O-NO 67 0 min 0,0 UV-I -4,9 C -4,6 C 0,0 km/h (0 Bft)
13.11.2011 04:40 -3,9 C 10,4 C -3,7 C -4,2 C -4,7 C 0,0 C 91 % 91 % 0 % 1036,7 hPa 0,0 l/m 0,2 km/h (0 Bft) O-NO 67 0 min 0,0 UV-I -5,1 C -4,7 C 0,0 km/h (0 Bft)
13.11.2011 04:45 -3,9 C 10,4 C -3,6 C -4,2 C -4,9 C 0,0 C 91 % 91 % 0 % 1036,7 hPa 0,0 l/m 0,0 km/h (0 Bft) O-NO 67 0 min 0,0 UV-I -5,1 C -4,9 C 0,0 km/h (0 Bft)
13.11.2011 04:50 -3,9 C 10,3 C -3,6 C -4,2 C -4,8 C 0,0 C 91 % 91 % 0 % 1036,7 hPa 0,0 l/m 0,0 km/h (0 Bft) O-NO 67 0 min 0,0 UV-I -5,1 C -4,8 C 0,0 km/h (0 Bft)
13.11.2011 04:55 -3,9 C 10,3 C -3,5 C -4,2 C -4,8 C 0,0 C 91 % 91 % 0 % 1036,7 hPa 0,0 l/m 0,0 km/h (0 Bft) O-NO 67 0 min 0,0 UV-I -5,1 C -4,8 C 0,0 km/h (0 Bft)
13.11.2011 05:00 -3,9 C 10,3 C -3,5 C -4,3 C -5,0 C 0,0 C 91 % 91 % 0 % 1036,7 hPa 0,0 l/m 0,0 km/h (0 Bft) SW 225 0 min 0,0 UV-I -5,1 C -5,0 C 0,0 km/h (0 Bft)
13.11.2011 05:04 -4,0 C 10,3 C -3,5 C -4,3 C -5,0 C 0,0 C 91 % 91 % 0 % 1036,7 hPa 0,0 l/m 0,5 km/h (0 Bft) SW 225 0 min 0,0 UV-I -5,2 C -5,0 C 0,0 km/h (0 Bft)
13.11.2011 05:09 -4,1 C 10,3 C -3,5 C -4,4 C -5,0 C 0,0 C 90 % 91 % 0 % 1036,7 hPa 0,0 l/m 0,5 km/h (0 Bft) S 180 0 min 0,0 UV-I -5,5 C -5,0 C 0,0 km/h (0 Bft)
13.11.2011 05:14 -4,1 C 10,3 C -3,7 C -4,4 C -5,1 C 0,0 C 90 % 91 % 0 % 1036,7 hPa 0,0 l/m 0,0 km/h (0 Bft) SW 225 0 min 0,0 UV-I -5,5 C -5,1 C 0,0 km/h (0 Bft)
13.11.2011 05:18 -4,1 C 10,3 C -3,7 C -4,4 C -5,1 C 0,0 C 90 % 91 % 0 % 1036,7 hPa 0,0 l/m 0,0 km/h (0 Bft) SW 225 0 min 0,0 UV-I -5,5 C -5,1 C 0,0 km/h (0 Bft)
13.11.2011 05:25 -4,1 C 10,3 C -3,6 C -4,4 C -5,1 C 0,0 C 90 % 91 % 0 % 1036,8 hPa 0,0 l/m 0,0 km/h (0 Bft) SO 135 0 min 0,0 UV-I -5,5 C -5,1 C 0,0 km/h (0 Bft)
13.11.2011 05:30 -4,1 C 10,3 C -3,7 C -4,4 C -5,0 C 0,0 C 90 % 91 % 0 % 1036,8 hPa 0,0 l/m 0,0 km/h (0 Bft) SO 135 0 min 0,0 UV-I -5,5 C -5,0 C 0,0 km/h (0 Bft)
13.11.2011 05:35 -4,1 C 10,3 C -3,9 C -4,4 C -5,0 C 0,0 C 90 % 91 % 0 % 1036,8 hPa 0,0 l/m 0,0 km/h (0 Bft) SO 135 0 min 0,0 UV-I -5,5 C -5,0 C 0,0 km/h (0 Bft)
13.11.2011 05:40 -4,1 C 10,3 C -3,9 C -4,4 C -5,1 C 0,0 C 90 % 91 % 0 % 1036,4 hPa 0,0 l/m 0,0 km/h (0 Bft) S-SO 157 0 min 0,0 UV-I -5,5 C -5,1 C 0,0 km/h (0 Bft)
13.11.2011 05:45 -4,2 C 10,2 C -3,7 C -4,5 C -5,2 C 0,0 C 90 % 91 % 0 % 1036,4 hPa 0,0 l/m 0,0 km/h (0 Bft) W-SW 247 0 min 0,0 UV-I -5,6 C -5,2 C 0,0 km/h (0 Bft)
13.11.2011 05:50 -4,1 C 10,2 C -3,9 C -4,5 C -5,2 C 0,0 C 90 % 91 % 0 % 1036,4 hPa 0,0 l/m 0,0 km/h (0 Bft) W-SW 247 0 min 0,0 UV-I -5,5 C -5,2 C 0,0 km/h (0 Bft)
13.11.2011 05:55 -4,1 C 10,2 C -3,9 C -4,5 C -5,3 C 0,0 C 90 % 91 % 0 % 1036,4 hPa 0,0 l/m 0,0 km/h (0 Bft) W 270 0 min 0,0 UV-I -5,5 C -5,3 C 1,6 km/h (1 Bft)
13.11.2011 06:00 -4,1 C 10,2 C -3,7 C -4,5 C -5,2 C 0,0 C 91 % 91 % 0 % 1036,4 hPa 0,0 l/m 0,2 km/h (0 Bft) W 270 0 min 0,0 UV-I -5,3 C -5,2 C 0,0 km/h (0 Bft)
13.11.2011 06:04 -4,2 C 10,2 C -3,7 C -4,5 C -5,1 C 0,0 C 91 % 91 % 0 % 1036,4 hPa 0,0 l/m 0,2 km/h (0 Bft) W-SW 247 0 min 0,0 UV-I -5,4 C -5,1 C 0,0 km/h (0 Bft)
13.11.2011 06:09 -4,2 C 10,2 C -3,7 C -4,5 C -5,1 C 0,0 C 91 % 91 % 0 % 1036,4 hPa 0,0 l/m 0,0 km/h (0 Bft) W-SW 247 0 min 0,0 UV-I -5,4 C -5,1 C 0,0 km/h (0 Bft)
13.11.2011 06:14 -4,1 C 10,2 C -3,9 C -4,5 C -5,2 C 0,0 C 91 % 91 % 0 % 1036,4 hPa 0,0 l/m 0,0 km/h (0 Bft) SO 135 0 min 0,0 UV-I -5,3 C -5,2 C 0,0 km/h (0 Bft)
13.11.2011 06:18 -4,1 C 10,2 C -3,9 C -4,5 C -5,2 C 0,0 C 91 % 91 % 0 % 1036,4 hPa 0,0 l/m 0,0 km/h (0 Bft) SO 135 0 min 0,0 UV-I -5,3 C -5,2 C 0,0 km/h (0 Bft)
13.11.2011 06:25 -4,3 C 10,2 C -4,1 C -4,6 C -5,2 C 0,0 C 90 % 91 % 0 % 1036,5 hPa 0,0 l/m 0,0 km/h (0 Bft) SO 135 0 min 0,0 UV-I -5,7 C -5,2 C 0,0 km/h (0 Bft)
13.11.2011 06:30 -4,3 C 10,2 C -4,1 C -4,6 C -5,1 C 0,0 C 91 % 91 % 0 % 1036,5 hPa 0,0 l/m 0,0 km/h (0 Bft) SO 135 0 min 0,0 UV-I -5,5 C -5,1 C 0,0 km/h (0 Bft)
13.11.2011 06:35 -4,3 C 10,2 C -3,9 C -4,6 C -5,1 C 0,0 C 91 % 91 % 0 % 1036,5 hPa 0,0 l/m 0,0 km/h (0 Bft) SO 135 0 min 0,0 UV-I -5,5 C -5,1 C 0,0 km/h (0 Bft)
13.11.2011 06:40 -4,1 C 10,2 C -4,1 C -4,4 C -5,0 C 0,0 C 91 % 91 % 0 % 1036,5 hPa 0,0 l/m 0,0 km/h (0 Bft) SO 135 0 min 0,0 UV-I -5,3 C -5,0 C 0,0 km/h (0 Bft)
13.11.2011 06:45 -4,2 C 10,2 C -4,1 C -4,5 C -5,0 C 0,0 C 91 % 91 % 0 % 1036,5 hPa 0,0 l/m 0,0 km/h (0 Bft) SO 135 0 min 0,0 UV-I -5,4 C -5,0 C 0,0 km/h (0 Bft)
13.11.2011 06:50 -4,1 C 10,1 C -4,0 C -4,4 C -5,0 C 0,0 C 91 % 91 % 0 % 1036,5 hPa 0,0 l/m 0,0 km/h (0 Bft) SO 135 0 min 0,0 UV-I -5,3 C -5,0 C 0,0 km/h (0 Bft)
13.11.2011 06:55 -4,1 C 10,1 C -4,0 C -4,4 C -5,1 C 0,0 C 91 % 91 % 0 % 1036,5 hPa 0,0 l/m 0,0 km/h (0 Bft) SO 135 0 min 0,0 UV-I -5,3 C -5,1 C 0,0 km/h (0 Bft)
13.11.2011 07:00 -4,3 C 10,1 C -4,0 C -4,6 C -5,3 C 0,0 C 91 % 91 % 0 % 1036,5 hPa 0,0 l/m 0,0 km/h (0 Bft) SO 135 0 min 0,0 UV-I -5,5 C -5,3 C 0,0 km/h (0 Bft)
13.11.2011 07:04 -4,4 C 10,1 C -4,0 C -4,8 C -5,7 C 0,0 C 90 % 91 % 0 % 1036,5 hPa 0,0 l/m 0,0 km/h (0 Bft) S-SO 157 0 min 0,0 UV-I -5,8 C -5,7 C 0,0 km/h (0 Bft)
13.11.2011 07:09 -4,3 C 10,1 C -3,9 C -4,8 C -5,7 C 0,0 C 90 % 91 % 0 % 1036,5 hPa 0,0 l/m 0,0 km/h (0 Bft) S-SO 157 0 min 0,0 UV-I -5,7 C -5,7 C 0,0 km/h (0 Bft)
13.11.2011 07:14 -4,5 C 10,1 C -4,1 C -4,9 C -5,6 C 0,0 C 90 % 91 % 0 % 1036,5 hPa 0,0 l/m 0,0 km/h (0 Bft) S-SO 157 0 min 0,0 UV-I -5,9 C -5,6 C 0,0 km/h (0 Bft)
13.11.2011 07:18 -4,5 C 10,1 C -4,1 C -4,9 C -5,6 C 0,0 C 90 % 91 % 0 % 1036,5 hPa 0,0 l/m 0,0 km/h (0 Bft) S-SO 157 0 min 0,0 UV-I -5,9 C -5,6 C 0,0 km/h (0 Bft)
13.11.2011 07:25 -4,6 C 10,1 C -4,1 C -5,0 C -5,7 C 0,0 C 90 % 91 % 0 % 1036,7 hPa 0,0 l/m 0,0 km/h (0 Bft) S-SO 157 0 min 0,0 UV-I -6,0 C -5,7 C 0,0 km/h (0 Bft)
13.11.2011 07:30 -4,5 C 10,1 C -4,1 C -4,9 C -5,6 C 0,0 C 90 % 91 % 0 % 1036,7 hPa 0,0 l/m 0,0 km/h (0 Bft) SO 135 0 min 0,0 UV-I -5,9 C -5,6 C 0,0 km/h (0 Bft)
13.11.2011 07:35 -4,5 C 10,1 C -4,1 C -4,8 C -5,4 C 0,0 C 91 % 91 % 0 % 1036,7 hPa 0,0 l/m 0,0 km/h (0 Bft) SO 135 0 min 0,0 UV-I -5,7 C -5,4 C 0,0 km/h (0 Bft)
13.11.2011 07:40 -4,5 C 10,1 C -4,1 C -4,8 C -5,4 C 0,0 C 91 % 91 % 0 % 1036,8 hPa 0,0 l/m 0,0 km/h (0 Bft) S-SW 202 0 min 0,0 UV-I -5,7 C -5,4 C 0,0 km/h (0 Bft)
13.11.2011 07:45 -4,5 C 10,1 C -4,0 C -4,8 C -5,4 C 0,0 C 91 % 91 % 0 % 1036,8 hPa 0,0 l/m 0,0 km/h (0 Bft) S-SW 202 0 min 0,0 UV-I -5,7 C -5,4 C 0,0 km/h (0 Bft)
13.11.2011 07:50 -4,6 C 10,1 C -3,9 C -4,9 C -5,4 C 0,0 C 91 % 91 % 0 % 1036,8 hPa 0,0 l/m 0,0 km/h (0 Bft) S-SW 202 0 min 0,0 UV-I -5,8 C -5,4 C 0,0 km/h (0 Bft)
13.11.2011 07:55 -4,5 C 10,1 C -3,9 C -4,8 C -5,3 C 0,0 C 91 % 91 % 0 % 1036,8 hPa 0,0 l/m 0,0 km/h (0 Bft) S-SO 157 0 min 0,0 UV-I -5,7 C -5,3 C 0,0 km/h (0 Bft)
13.11.2011 08:00 -4,5 C 10,1 C -3,9 C -4,7 C -5,2 C 0,0 C 91 % 91 % 0 % 1036,8 hPa 0,0 l/m 0,0 km/h (0 Bft) S-SW 202 0 min 0,0 UV-I -5,7 C -5,2 C 0,0 km/h (0 Bft)
13.11.2011 08:04 -4,5 C 10,0 C -3,7 C -4,7 C -5,0 C 0,0 C 91 % 92 % 0 % 1036,8 hPa 0,0 l/m 0,0 km/h (0 Bft) S-SW 202 0 min 0,0 UV-I -5,7 C -5,0 C 0,0 km/h (0 Bft)
13.11.2011 08:09 -4,5 C 10,0 C -3,7 C -4,6 C -4,7 C 0,0 C 91 % 92 % 0 % 1036,8 hPa 0,0 l/m 0,0 km/h (0 Bft) S-SW 202 0 min 0,0 UV-I -5,7 C -4,7 C 0,0 km/h (0 Bft)
13.11.2011 08:14 -4,5 C 10,0 C -3,7 C -4,5 C -4,6 C 0,0 C 91 % 91 % 0 % 1036,8 hPa 0,0 l/m 0,0 km/h (0 Bft) S-SW 202 0 min 0,0 UV-I -5,7 C -4,6 C 0,0 km/h (0 Bft)
13.11.2011 08:18 -4,5 C 10,0 C -3,7 C -4,5 C -4,6 C 0,0 C 91 % 91 % 0 % 1036,8 hPa 0,0 l/m 0,0 km/h (0 Bft) S-SW 202 0 min 0,0 UV-I -5,7 C -4,6 C 0,0 km/h (0 Bft)
13.11.2011 08:25 -4,1 C 10,0 C -3,6 C -4,2 C -4,4 C 0,0 C 91 % 91 % 0 % 1036,8 hPa 0,0 l/m 0,0 km/h (0 Bft) SO 135 0 min 0,0 UV-I -5,3 C -4,4 C 0,0 km/h (0 Bft)
13.11.2011 08:30 -4,1 C 10,0 C -3,5 C -4,1 C -4,2 C 0,0 C 91 % 91 % 0 % 1036,8 hPa 0,0 l/m 0,0 km/h (0 Bft) SO 135 0 min 0,0 UV-I -5,3 C -4,2 C 0,0 km/h (0 Bft)
13.11.2011 08:35 -3,9 C 10,0 C -3,5 C -3,8 C -3,8 C 0,1 C 91 % 91 % 3 % 1036,8 hPa 0,0 l/m 0,0 km/h (0 Bft) SO 135 0 min 0,0 UV-I -5,1 C -3,8 C 0,0 km/h (0 Bft)
13.11.2011 08:40 -3,7 C 10,0 C -3,3 C -3,7 C -3,7 C 0,0 C 92 % 91 % 0 % 1036,8 hPa 0,0 l/m 0,0 km/h (0 Bft) SO 135 0 min 0,0 UV-I -4,8 C -3,7 C 0,0 km/h (0 Bft)
13.11.2011 08:45 -3,7 C 10,0 C -3,2 C -3,5 C -3,5 C 0,2 C 92 % 91 % 5 % 1036,8 hPa 0,0 l/m 0,0 km/h (0 Bft) SO 135 0 min 0,0 UV-I -4,8 C -3,5 C 0,0 km/h (0 Bft)
13.11.2011 08:50 -3,6 C 10,0 C -3,1 C -3,5 C -3,5 C 0,1 C 92 % 91 % 3 % 1036,8 hPa 0,0 l/m 0,0 km/h (0 Bft) SO 135 0 min 0,0 UV-I -4,7 C -3,5 C 0,0 km/h (0 Bft)
13.11.2011 08:55 -3,5 C 10,0 C -2,9 C -3,4 C -3,4 C 0,1 C 92 % 92 % 3 % 1036,8 hPa 0,0 l/m 0,0 km/h (0 Bft) W-SW 247 0 min 0,0 UV-I -4,6 C -3,4 C 0,0 km/h (0 Bft)
13.11.2011 09:00 -3,5 C 9,9 C -2,8 C -3,3 C -3,3 C 0,2 C 92 % 92 % 5 % 1037,2 hPa 0,0 l/m 0,0 km/h (0 Bft) W-SW 247 0 min 0,0 UV-I -4,6 C -3,3 C 0,0 km/h (0 Bft)
13.11.2011 09:04 -3,4 C 9,9 C -2,7 C -3,3 C -3,3 C 0,1 C 92 % 92 % 3 % 1037,2 hPa 0,0 l/m 0,0 km/h (0 Bft) W-SW 247 0 min 0,0 UV-I -4,5 C -3,3 C 0,0 km/h (0 Bft)
13.11.2011 09:09 -3,3 C 9,9 C -2,5 C -3,2 C -3,2 C 0,1 C 92 % 92 % 3 % 1037,2 hPa 0,0 l/m 0,0 km/h (0 Bft) W-SW 247 0 min 0,0 UV-I -4,4 C -3,2 C 0,0 km/h (0 Bft)
13.11.2011 09:14 -3,3 C 9,7 C -2,5 C -3,1 C -3,1 C 0,2 C 92 % 92 % 5 % 1037,2 hPa 0,0 l/m 0,0 km/h (0 Bft) W-SW 247 0 min 0,0 UV-I -4,4 C -3,1 C 0,0 km/h (0 Bft)
13.11.2011 09:18 -3,3 C 9,7 C -2,5 C -3,1 C -3,1 C 0,2 C 92 % 92 % 5 % 1037,2 hPa 0,0 l/m 0,0 km/h (0 Bft) W-SW 247 0 min 0,0 UV-I -4,4 C -3,1 C 0,0 km/h (0 Bft)
13.11.2011 09:25 -2,9 C 9,7 C -2,3 C -2,3 C -2,3 C 0,6 C 92 % 92 % 16 % 1037,2 hPa 0,0 l/m 0,0 km/h (0 Bft) W-SW 247 0 min 0,0 UV-I -4,0 C -2,3 C 0,0 km/h (0 Bft)
13.11.2011 09:30 -2,7 C 9,7 C -2,1 C -2,2 C -2,2 C 0,5 C 92 % 92 % 13 % 1037,2 hPa 0,0 l/m 0,0 km/h (0 Bft) W-SW 247 0 min 0,0 UV-I -3,8 C -2,2 C 0,0 km/h (0 Bft)
13.11.2011 09:35 -2,5 C 9,7 C -2,0 C -2,0 C -2,0 C 0,5 C 92 % 92 % 13 % 1037,2 hPa 0,0 l/m 0,2 km/h (0 Bft) SW 225 0 min 0,0 UV-I -3,6 C -2,0 C 1,6 km/h (1 Bft)
13.11.2011 09:40 -2,3 C 9,5 C -1,7 C -1,8 C -1,8 C 0,5 C 92 % 92 % 13 % 1037,2 hPa 0,0 l/m 0,2 km/h (0 Bft) W-SW 247 0 min 0,0 UV-I -3,4 C -1,8 C 0,0 km/h (0 Bft)
13.11.2011 09:45 -2,0 C 9,7 C -1,5 C -1,4 C -1,4 C 0,6 C 92 % 92 % 16 % 1037,2 hPa 0,0 l/m 0,3 km/h (0 Bft) W-SW 247 0 min 0,0 UV-I -3,1 C -1,4 C 0,0 km/h (0 Bft)
13.11.2011 09:50 -1,7 C 9,7 C -1,3 C -1,1 C -1,1 C 0,6 C 92 % 92 % 16 % 1037,2 hPa 0,0 l/m 0,3 km/h (0 Bft) W-SW 247 0 min 0,0 UV-I -2,8 C -1,1 C 0,0 km/h (0 Bft)
13.11.2011 09:55 -1,7 C 9,7 C -1,1 C -0,7 C -0,7 C 1,0 C 92 % 92 % 26 % 1037,2 hPa 0,0 l/m 0,0 km/h (0 Bft) W-SW 247 0 min 0,0 UV-I -2,8 C -0,7 C 0,0 km/h (0 Bft)
13.11.2011 10:00 -1,3 C 9,7 C -1,0 C -0,5 C -0,5 C 0,8 C 92 % 92 % 21 % 1037,2 hPa 0,0 l/m 0,2 km/h (0 Bft) W-SW 247 0 min 0,0 UV-I -2,4 C -0,5 C 1,8 km/h (1 Bft)
13.11.2011 10:10 -0,9 C 9,7 C -0,6 C 0,7 C 0,7 C 1,6 C 93 % 92 % 42 % 1037,2 hPa 0,0 l/m 1,0 km/h (0 Bft) N 0 0 min 0,0 UV-I -1,9 C 0,7 C 1,6 km/h (1 Bft)
13.11.2011 10:20 -0,3 C 9,7 C -0,1 C 1,1 C 1,1 C 1,4 C 93 % 92 % 37 % 1037,2 hPa 0,0 l/m 0,6 km/h (0 Bft) W-SW 247 0 min 0,0 UV-I -1,3 C 1,1 C 1,6 km/h (1 Bft)
13.11.2011 10:25 -0,1 C 9,7 C 0,3 C 1,3 C 1,3 C 1,4 C 93 % 93 % 37 % 1037,2 hPa 0,0 l/m 0,8 km/h (0 Bft) N 360 0 min 0,0 UV-I -1,1 C 1,3 C 0,0 km/h (0 Bft)
13.11.2011 10:30 0,1 C 9,6 C 0,3 C 1,4 C 1,4 C 1,3 C 93 % 92 % 34 % 1037,2 hPa 0,0 l/m 1,4 km/h (1 Bft) S 180 0 min 0,0 UV-I -0,9 C 1,4 C 3,2 km/h (1 Bft)
13.11.2011 10:35 0,5 C 9,6 C 0,5 C 1,4 C 1,4 C 0,9 C 93 % 92 % 24 % 1037,2 hPa 0,0 l/m 1,0 km/h (0 Bft) W-SW 247 0 min 0,0 UV-I -0,5 C 1,4 C 1,6 km/h (1 Bft)
13.11.2011 10:40 0,7 C 9,5 C 0,7 C 1,8 C 1,8 C 1,1 C 93 % 92 % 29 % 1037,1 hPa 0,0 l/m 0,8 km/h (0 Bft) S-SO 157 0 min 0,0 UV-I -0,3 C 1,8 C 3,4 km/h (1 Bft)
13.11.2011 10:45 0,9 C 9,4 C 0,8 C 2,7 C 2,7 C 1,8 C 93 % 92 % 47 % 1037,1 hPa 0,0 l/m 0,5 km/h (0 Bft) NO 45 0 min 0,0 UV-I -0,1 C 2,7 C 0,0 km/h (0 Bft)
13.11.2011 10:50 1,0 C 9,4 C 0,9 C 3,9 C 3,9 C 2,9 C 93 % 92 % 76 % 1037,1 hPa 0,0 l/m 0,0 km/h (0 Bft) S-SW 202 0 min 0,0 UV-I -0,0 C 3,9 C 1,9 km/h (1 Bft)
13.11.2011 10:55 1,3 C 9,4 C 1,1 C 5,1 C 5,1 C 3,8 C 93 % 92 % 100 % 1037,1 hPa 0,0 l/m 0,8 km/h (0 Bft) S-SW 202 5 min 0,0 UV-I 0,3 C 5,1 C 1,9 km/h (1 Bft)
13.11.2011 11:00 1,6 C 9,4 C 1,3 C 6,0 C 6,0 C 4,4 C 92 % 92 % 100 % 1036,6 hPa 0,0 l/m 1,3 km/h (1 Bft) S 180 5 min 0,0 UV-I 0,4 C 6,0 C 2,4 km/h (1 Bft)
13.11.2011 11:04 1,9 C 9,4 C 1,6 C 6,7 C 6,7 C 4,8 C 92 % 92 % 100 % 1036,6 hPa 0,0 l/m 1,0 km/h (0 Bft) S-SO 157 4 min 0,0 UV-I 0,7 C 6,7 C 0,0 km/h (0 Bft)
13.11.2011 11:09 2,1 C 9,4 C 1,8 C 6,6 C 6,6 C 4,5 C 92 % 92 % 100 % 1036,6 hPa 0,0 l/m 1,1 km/h (1 Bft) S-SO 157 5 min 0,0 UV-I 0,9 C 6,6 C 2,9 km/h (1 Bft)
13.11.2011 11:14 2,4 C 9,4 C 2,2 C 6,8 C 6,8 C 4,4 C 92 % 92 % 100 % 1036,6 hPa 0,0 l/m 0,6 km/h (0 Bft) SW 225 5 min 0,0 UV-I 1,2 C 6,8 C 1,8 km/h (1 Bft)
13.11.2011 11:17 2,4 C 9,4 C 2,2 C 6,8 C 6,8 C 4,4 C 92 % 92 % 100 % 1036,6 hPa 0,0 l/m 0,6 km/h (0 Bft) SW 225 3 min 0,0 UV-I 1,2 C 6,8 C 1,8 km/h (1 Bft)
13.11.2011 11:20 2,6 C 9,4 C 2,5 C 7,1 C 7,1 C 4,5 C 91 % 91 % 100 % 1036,6 hPa 0,0 l/m 0,5 km/h (0 Bft) SW 225 3 min 0,0 UV-I 1,3 C 7,1 C 0,0 km/h (0 Bft)
13.11.2011 11:25 2,8 C 9,4 C 2,4 C 7,0 C 7,0 C 4,2 C 91 % 91 % 100 % 1036,6 hPa 0,0 l/m 0,3 km/h (0 Bft) S 180 5 min 0,0 UV-I 1,5 C 7,0 C 2,9 km/h (1 Bft)
13.11.2011 11:30 3,2 C 9,4 C 2,6 C 6,6 C 6,6 C 3,4 C 91 % 91 % 89 % 1036,6 hPa 0,0 l/m 0,2 km/h (0 Bft) S 180 5 min 0,0 UV-I 1,9 C 6,6 C 0,0 km/h (0 Bft)
13.11.2011 11:35 3,5 C 9,4 C 2,9 C 6,5 C 6,5 C 3,0 C 90 % 91 % 79 % 1036,6 hPa 0,0 l/m 0,6 km/h (0 Bft) W-SW 247 0 min 0,0 UV-I 2,0 C 6,5 C 2,9 km/h (1 Bft)
13.11.2011 11:40 3,8 C 9,4 C 3,1 C 6,7 C 6,7 C 2,9 C 88 % 90 % 76 % 1036,6 hPa 0,0 l/m 1,4 km/h (1 Bft) SW 225 0 min 0,0 UV-I 2,0 C 6,7 C 2,1 km/h (1 Bft)
13.11.2011 11:45 4,1 C 9,5 C 3,3 C 7,1 C 7,1 C 3,0 C 88 % 90 % 79 % 1036,6 hPa 0,0 l/m 1,4 km/h (1 Bft) W 270 0 min 0,0 UV-I 2,3 C 7,1 C 2,3 km/h (1 Bft)
13.11.2011 11:50 4,4 C 9,4 C 3,5 C 7,2 C 7,2 C 2,8 C 86 % 90 % 74 % 1036,6 hPa 0,0 l/m 1,1 km/h (1 Bft) W 270 0 min 0,0 UV-I 2,3 C 7,2 C 2,9 km/h (1 Bft)
13.11.2011 11:55 4,5 C 9,5 C 3,7 C 7,8 C 7,8 C 3,3 C 86 % 90 % 87 % 1036,6 hPa 0,0 l/m 1,0 km/h (0 Bft) W-SW 247 5 min 0,0 UV-I 2,4 C 7,8 C 1,8 km/h (1 Bft)
13.11.2011 12:00 4,7 C 9,4 C 3,9 C 7,8 C 7,8 C 3,1 C 83 % 89 % 82 % 1034,9 hPa 0,0 l/m 1,3 km/h (1 Bft) SW 225 0 min 0,0 UV-I 2,1 C 7,8 C 3,4 km/h (1 Bft)
13.11.2011 12:04 5,0 C 9,4 C 4,1 C 7,7 C 7,7 C 2,7 C 82 % 89 % 71 % 1034,9 hPa 0,0 l/m 2,3 km/h (1 Bft) S 180 0 min 0,0 UV-I 2,2 C 7,7 C 3,7 km/h (1 Bft)
13.11.2011 12:09 5,2 C 9,4 C 4,3 C 7,8 C 7,8 C 2,6 C 82 % 88 % 68 % 1034,9 hPa 0,0 l/m 2,1 km/h (1 Bft) SW 225 0 min 0,0 UV-I 2,4 C 7,8 C 3,2 km/h (1 Bft)
13.11.2011 12:14 5,5 C 9,4 C 4,5 C 8,5 C 8,5 C 3,0 C 80 % 87 % 79 % 1034,9 hPa 0,0 l/m 1,4 km/h (1 Bft) SW 225 0 min 0,0 UV-I 2,3 C 8,5 C 3,9 km/h (1 Bft)
13.11.2011 12:17 5,5 C 9,4 C 4,5 C 8,5 C 8,5 C 3,0 C 80 % 87 % 79 % 1034,9 hPa 0,0 l/m 1,4 km/h (1 Bft) SW 225 0 min 0,0 UV-I 2,3 C 8,5 C 3,9 km/h (1 Bft)
13.11.2011 12:20 5,6 C 9,4 C 4,7 C 8,6 C 8,6 C 3,0 C 79 % 87 % 79 % 1034,7 hPa 0,0 l/m 1,3 km/h (1 Bft) W-SW 247 0 min 0,0 UV-I 2,3 C 8,6 C 2,7 km/h (1 Bft)
13.11.2011 12:25 6,1 C 9,4 C 4,9 C 8,5 C 8,5 C 2,4 C 78 % 86 % 63 % 1034,7 hPa 0,0 l/m 1,8 km/h (1 Bft) W-SW 247 0 min 0,0 UV-I 2,6 C 8,5 C 3,9 km/h (1 Bft)
13.11.2011 12:30 6,2 C 9,4 C 5,0 C 8,4 C 8,4 C 2,2 C 77 % 86 % 58 % 1034,7 hPa 0,0 l/m 1,8 km/h (1 Bft) SW 225 0 min 0,0 UV-I 2,5 C 8,4 C 0,0 km/h (0 Bft)
13.11.2011 12:35 6,4 C 9,4 C 5,2 C 8,6 C 8,6 C 2,2 C 75 % 85 % 58 % 1034,7 hPa 0,0 l/m 1,9 km/h (1 Bft) SW 225 0 min 0,0 UV-I 2,3 C 8,6 C 1,9 km/h (1 Bft)
13.11.2011 12:40 6,7 C 9,4 C 5,5 C 8,7 C 8,7 C 2,0 C 74 % 84 % 53 % 1034,9 hPa 0,0 l/m 2,1 km/h (1 Bft) S 180 0 min 0,0 UV-I 2,4 C 8,7 C 3,2 km/h (1 Bft)
13.11.2011 12:45 6,7 C 9,4 C 5,6 C 8,8 C 8,8 C 2,1 C 73 % 84 % 55 % 1034,9 hPa 0,0 l/m 1,6 km/h (1 Bft) W-SW 247 0 min 0,0 UV-I 2,2 C 8,8 C 4,5 km/h (1 Bft)
13.11.2011 12:50 6,8 C 9,4 C 5,7 C 9,1 C 9,1 C 2,3 C 73 % 84 % 61 % 1034,9 hPa 0,0 l/m 1,8 km/h (1 Bft) W-SW 247 0 min 0,0 UV-I 2,3 C 9,1 C 3,2 km/h (1 Bft)
13.11.2011 12:55 7,2 C 9,4 C 5,9 C 9,4 C 9,4 C 2,2 C 73 % 82 % 58 % 1034,9 hPa 0,0 l/m 2,4 km/h (1 Bft) W-SW 247 0 min 0,0 UV-I 2,7 C 9,4 C 2,3 km/h (1 Bft)
13.11.2011 13:00 7,5 C 9,5 C 6,1 C 9,5 C 9,5 C 2,0 C 74 % 81 % 53 % 1035,0 hPa 0,0 l/m 1,9 km/h (1 Bft) S-SW 202 0 min 0,0 UV-I 3,2 C 9,5 C 0,0 km/h (0 Bft)
13.11.2011 13:05 7,6 C 9,5 C 6,3 C 10,1 C 10,1 C 2,5 C 72 % 81 % 66 % 1035,0 hPa 0,0 l/m 2,1 km/h (1 Bft) W-SW 247 0 min 0,0 UV-I 2,9 C 10,1 C 2,9 km/h (1 Bft)
13.11.2011 13:10 7,9 C 9,5 C 6,3 C 11,0 C 11,0 C 3,1 C 71 % 80 % 82 % 1035,0 hPa 0,0 l/m 2,7 km/h (1 Bft) SW 225 0 min 0,0 UV-I 3,0 C 11,0 C 4,7 km/h (1 Bft)
13.11.2011 13:15 8,0 C 9,5 C 6,7 C 11,3 C 11,3 C 3,3 C 69 % 80 % 87 % 1035,0 hPa 0,0 l/m 3,1 km/h (1 Bft) SW 225 5 min 0,0 UV-I 2,7 C 11,3 C 2,4 km/h (1 Bft)
13.11.2011 13:20 8,2 C 9,5 C 6,7 C 11,8 C 11,8 C 3,6 C 70 % 79 % 95 % 1034,6 hPa 0,0 l/m 2,4 km/h (1 Bft) S 180 5 min 0,0 UV-I 3,1 C 11,8 C 5,5 km/h (1 Bft)
13.11.2011 13:25 8,5 C 9,5 C 7,1 C 12,6 C 12,6 C 4,1 C 70 % 79 % 100 % 1034,6 hPa 0,0 l/m 1,4 km/h (1 Bft) S 180 5 min 0,0 UV-I 3,3 C 12,6 C 2,6 km/h (1 Bft)
13.11.2011 13:30 8,8 C 9,5 C 7,2 C 13,0 C 13,0 C 4,2 C 69 % 78 % 100 % 1034,6 hPa 0,0 l/m 1,3 km/h (1 Bft) S 180 5 min 0,0 UV-I 3,4 C 13,0 C 1,9 km/h (1 Bft)
13.11.2011 13:35 8,8 C 9,6 C 7,2 C 13,4 C 13,4 C 4,6 C 69 % 77 % 100 % 1034,6 hPa 0,0 l/m 1,1 km/h (1 Bft) W-SW 247 5 min 0,0 UV-I 3,4 C 13,4 C 2,6 km/h (1 Bft)
13.11.2011 13:40 8,9 C 9,6 C 7,5 C 13,2 C 13,2 C 4,3 C 67 % 78 % 100 % 1034,7 hPa 0,0 l/m 1,6 km/h (1 Bft) W-SW 247 5 min 0,0 UV-I 3,1 C 13,2 C 1,8 km/h (1 Bft)
13.11.2011 13:45 8,8 C 9,6 C 7,7 C 13,3 C 13,3 C 4,5 C 68 % 78 % 100 % 1034,7 hPa 0,0 l/m 2,1 km/h (1 Bft) W-SW 247 5 min 0,0 UV-I 3,2 C 13,3 C 0,0 km/h (0 Bft)
13.11.2011 13:50 8,9 C 9,6 C 7,7 C 13,1 C 13,1 C 4,2 C 68 % 77 % 100 % 1034,7 hPa 0,0 l/m 1,1 km/h (1 Bft) NW 315 5 min 0,0 UV-I 3,3 C 13,1 C 2,1 km/h (1 Bft)
13.11.2011 13:55 8,9 C 9,7 C 7,7 C 13,4 C 13,4 C 4,5 C 68 % 77 % 100 % 1034,7 hPa 0,0 l/m 0,5 km/h (0 Bft) S-SO 157 5 min 0,0 UV-I 3,3 C 13,4 C 0,0 km/h (0 Bft)
13.11.2011 14:00 9,1 C 9,6 C 8,0 C 13,2 C 13,2 C 4,1 C 66 % 77 % 100 % 1034,7 hPa 0,0 l/m 1,3 km/h (1 Bft) W-SW 247 5 min 0,0 UV-I 3,1 C 13,2 C 4,2 km/h (1 Bft)
13.11.2011 14:04 9,5 C 9,6 C 10,0 C 12,8 C 12,8 C 3,3 C 66 % 76 % 87 % 1034,7 hPa 0,0 l/m 2,1 km/h (1 Bft) W 270 4 min 0,0 UV-I 3,5 C 12,8 C 0,0 km/h (0 Bft)
13.11.2011 14:09 9,5 C 9,6 C 11,5 C 13,2 C 13,2 C 3,7 C 66 % 69 % 97 % 1034,7 hPa 0,0 l/m 1,9 km/h (1 Bft) W-SW 247 5 min 0,0 UV-I 3,5 C 13,2 C 2,3 km/h (1 Bft)
13.11.2011 14:14 9,7 C 9,6 C 12,9 C 13,7 C 13,7 C 4,0 C 65 % 67 % 100 % 1034,7 hPa 0,0 l/m 1,1 km/h (1 Bft) W-SW 247 5 min 0,0 UV-I 3,4 C 13,7 C 2,9 km/h (1 Bft)
13.11.2011 14:18 9,7 C 9,6 C 12,9 C 13,7 C 13,7 C 4,0 C 65 % 67 % 100 % 1034,7 hPa 0,0 l/m 1,1 km/h (1 Bft) W-SW 247 4 min 0,0 UV-I 3,4 C 13,7 C 2,9 km/h (1 Bft)
13.11.2011 14:25 9,8 C 9,7 C 11,5 C 14,4 C 14,4 C 4,6 C 65 % 64 % 100 % 1034,6 hPa 0,0 l/m 0,8 km/h (0 Bft) N 360 7 min 0,0 UV-I 3,5 C 14,4 C 0,0 km/h (0 Bft)
13.11.2011 14:30 9,8 C 9,7 C 10,7 C 14,4 C 14,4 C 4,6 C 65 % 65 % 100 % 1034,6 hPa 0,0 l/m 0,2 km/h (0 Bft) O-NO 67 5 min 0,0 UV-I 3,5 C 14,4 C 0,0 km/h (0 Bft)
13.11.2011 14:35 10,0 C 9,7 C 9,9 C 14,2 C 14,2 C 4,2 C 65 % 67 % 100 % 1034,6 hPa 0,0 l/m 0,2 km/h (0 Bft) NW 315 5 min 0,0 UV-I 3,7 C 14,2 C 0,0 km/h (0 Bft)
13.11.2011 14:40 10,1 C 9,7 C 9,6 C 14,2 C 14,2 C 4,1 C 65 % 68 % 100 % 1034,6 hPa 0,0 l/m 0,2 km/h (0 Bft) W-NW 292 5 min 0,0 UV-I 3,8 C 14,2 C 0,0 km/h (0 Bft)
13.11.2011 14:45 10,1 C 9,7 C 9,2 C 14,1 C 14,1 C 4,0 C 64 % 69 % 100 % 1034,6 hPa 0,0 l/m 0,5 km/h (0 Bft) W-NW 292 5 min 0,0 UV-I 3,6 C 14,1 C 2,1 km/h (1 Bft)
13.11.2011 14:50 10,0 C 9,7 C 9,0 C 13,9 C 13,9 C 3,9 C 64 % 70 % 100 % 1034,6 hPa 0,0 l/m 0,5 km/h (0 Bft) N-NW 337 5 min 0,0 UV-I 3,5 C 13,9 C 0,0 km/h (0 Bft)
13.11.2011 14:55 9,6 C 9,8 C 8,7 C 13,8 C 13,8 C 4,2 C 65 % 70 % 100 % 1034,6 hPa 0,0 l/m 0,2 km/h (0 Bft) N-NO 22 5 min 0,0 UV-I 3,4 C 13,8 C 0,0 km/h (0 Bft)
13.11.2011 15:00 9,5 C 9,8 C 8,7 C 13,6 C 13,6 C 4,1 C 65 % 71 % 100 % 1034,6 hPa 0,0 l/m 0,2 km/h (0 Bft) N-NO 22 5 min 0,0 UV-I 3,3 C 13,6 C 0,0 km/h (0 Bft)
13.11.2011 15:04 9,2 C 9,9 C 8,3 C 13,5 C 13,5 C 4,3 C 66 % 72 % 100 % 1034,6 hPa 0,0 l/m 0,2 km/h (0 Bft) N-NO 22 4 min 0,0 UV-I 3,2 C 13,5 C 0,0 km/h (0 Bft)
13.11.2011 15:09 9,1 C 9,9 C 8,3 C 13,2 C 13,2 C 4,1 C 66 % 72 % 100 % 1034,6 hPa 0,0 l/m 0,3 km/h (0 Bft) N-NO 22 5 min 0,0 UV-I 3,1 C 13,2 C 0,0 km/h (0 Bft)
13.11.2011 15:14 8,8 C 9,9 C 8,3 C 12,6 C 12,6 C 3,8 C 67 % 72 % 100 % 1034,6 hPa 0,0 l/m 0,3 km/h (0 Bft) N-NO 22 5 min 0,0 UV-I 3,0 C 12,6 C 0,0 km/h (0 Bft)
13.11.2011 15:18 8,8 C 9,9 C 8,3 C 12,6 C 12,6 C 3,8 C 67 % 72 % 100 % 1034,6 hPa 0,0 l/m 0,3 km/h (0 Bft) N-NO 22 4 min 0,0 UV-I 3,0 C 12,6 C 0,0 km/h (0 Bft)
13.11.2011 15:25 8,6 C 9,9 C 8,0 C 10,3 C 10,3 C 1,7 C 68 % 72 % 45 % 1033,9 hPa 0,0 l/m 0,2 km/h (0 Bft) O-NO 67 0 min 0,0 UV-I 3,0 C 10,3 C 0,0 km/h (0 Bft)
13.11.2011 15:30 8,4 C 9,9 C 7,8 C 9,4 C 9,4 C 1,0 C 68 % 73 % 26 % 1033,9 hPa 0,0 l/m 0,0 km/h (0 Bft) O-NO 67 0 min 0,0 UV-I 2,8 C 9,4 C 0,0 km/h (0 Bft)
13.11.2011 15:35 8,2 C 9,9 C 7,6 C 8,7 C 8,7 C 0,5 C 69 % 73 % 13 % 1033,9 hPa 0,0 l/m 0,0 km/h (0 Bft) O-NO 67 0 min 0,0 UV-I 2,9 C 8,7 C 0,0 km/h (0 Bft)
13.11.2011 15:40 8,2 C 9,9 C 7,6 C 8,2 C 8,2 C 0,0 C 69 % 74 % 0 % 1034,6 hPa 0,0 l/m 0,0 km/h (0 Bft) O-NO 67 0 min 0,0 UV-I 2,9 C 8,2 C 0,0 km/h (0 Bft)
13.11.2011 15:45 8,0 C 9,9 C 7,5 C 8,1 C 8,1 C 0,1 C 69 % 74 % 3 % 1034,6 hPa 0,0 l/m 0,0 km/h (0 Bft) NO 45 0 min 0,0 UV-I 2,7 C 8,1 C 0,0 km/h (0 Bft)
13.11.2011 15:50 8,0 C 10,0 C 7,2 C 8,5 C 8,5 C 0,5 C 69 % 74 % 13 % 1034,6 hPa 0,0 l/m 0,0 km/h (0 Bft) N-NO 22 0 min 0,0 UV-I 2,7 C 8,5 C 0,0 km/h (0 Bft)
13.11.2011 15:55 7,8 C 10,0 C 6,9 C 8,9 C 8,9 C 1,1 C 70 % 75 % 29 % 1034,6 hPa 0,0 l/m 0,2 km/h (0 Bft) N-NO 22 5 min 0,0 UV-I 2,7 C 8,9 C 0,0 km/h (0 Bft)
13.11.2011 16:00 7,8 C 10,0 C 6,7 C 8,9 C 8,9 C 1,1 C 70 % 75 % 29 % 1034,4 hPa 0,0 l/m 0,2 km/h (0 Bft) N-NO 22 5 min 0,0 UV-I 2,7 C 8,9 C 0,0 km/h (0 Bft)
13.11.2011 16:04 7,5 C 10,0 C 6,5 C 8,6 C 8,6 C 1,1 C 70 % 76 % 29 % 1034,4 hPa 0,0 l/m 0,0 km/h (0 Bft) N-NO 22 4 min 0,0 UV-I 2,4 C 8,6 C 0,0 km/h (0 Bft)
13.11.2011 16:09 7,5 C 10,0 C 6,2 C 8,4 C 8,4 C 0,9 C 71 % 76 % 24 % 1034,4 hPa 0,0 l/m 0,0 km/h (0 Bft) N-NO 22 5 min 0,0 UV-I 2,6 C 8,4 C 0,0 km/h (0 Bft)
13.11.2011 16:14 7,1 C 10,0 C 5,9 C 7,8 C 7,8 C 0,7 C 71 % 77 % 0 % 1034,4 hPa 0,0 l/m 0,0 km/h (0 Bft) N-NO 22 0 min 0,0 UV-I 2,2 C 7,8 C 0,0 km/h (0 Bft)
13.11.2011 16:18 7,1 C 10,0 C 5,9 C 7,8 C 7,8 C 0,7 C 71 % 77 % 0 % 1034,4 hPa 0,0 l/m 0,0 km/h (0 Bft) N-NO 22 0 min 0,0 UV-I 2,2 C 7,8 C 0,0 km/h (0 Bft)
13.11.2011 16:25 6,5 C 10,2 C 5,4 C 6,4 C 6,3 C 0,0 C 72 % 78 % 0 % 1034,4 hPa 0,0 l/m 0,0 km/h (0 Bft) N-NO 22 0 min 0,0 UV-I 1,8 C 6,3 C 0,0 km/h (0 Bft)
13.11.2011 16:30 6,3 C 10,2 C 5,1 C 6,1 C 5,8 C 0,0 C 73 % 78 % 0 % 1034,4 hPa 0,0 l/m 0,0 km/h (0 Bft) N-NO 22 0 min 0,0 UV-I 1,8 C 5,8 C 0,0 km/h (0 Bft)
13.11.2011 16:35 5,9 C 10,2 C 4,7 C 5,6 C 5,0 C 0,0 C 73 % 78 % 0 % 1034,4 hPa 0,0 l/m 0,0 km/h (0 Bft) N-NO 22 0 min 0,0 UV-I 1,4 C 5,0 C 0,0 km/h (0 Bft)
13.11.2011 16:40 5,7 C 10,2 C 4,3 C 5,3 C 4,4 C 0,0 C 74 % 79 % 0 % 1033,8 hPa 0,0 l/m 0,0 km/h (0 Bft) N-NO 22 0 min 0,0 UV-I 1,4 C 4,4 C 0,0 km/h (0 Bft)
13.11.2011 16:45 5,2 C 10,2 C 4,1 C 4,7 C 3,7 C 0,0 C 75 % 80 % 0 % 1033,8 hPa 0,0 l/m 0,0 km/h (0 Bft) N-NO 22 0 min 0,0 UV-I 1,1 C 3,7 C 0,0 km/h (0 Bft)
13.11.2011 16:50 5,1 C 10,2 C 3,9 C 4,5 C 3,3 C 0,0 C 75 % 80 % 0 % 1033,8 hPa 0,0 l/m 0,0 km/h (0 Bft) W-NW 292 0 min 0,0 UV-I 1,0 C 3,3 C 0,0 km/h (0 Bft)
13.11.2011 16:55 4,7 C 10,2 C 3,9 C 4,1 C 3,0 C 0,0 C 77 % 81 % 0 % 1033,8 hPa 0,0 l/m 0,0 km/h (0 Bft) W-NW 292 0 min 0,0 UV-I 1,0 C 3,0 C 0,0 km/h (0 Bft)
13.11.2011 17:00 4,5 C 10,2 C 3,7 C 3,9 C 2,7 C 0,0 C 77 % 82 % 0 % 1034,0 hPa 0,0 l/m 0,0 km/h (0 Bft) W-NW 292 0 min 0,0 UV-I 0,8 C 2,7 C 0,0 km/h (0 Bft)
13.11.2011 17:04 4,3 C 10,3 C 3,3 C 3,6 C 2,2 C 0,0 C 77 % 82 % 0 % 1034,0 hPa 0,0 l/m 0,0 km/h (0 Bft) W-NW 292 0 min 0,0 UV-I 0,6 C 2,2 C 0,0 km/h (0 Bft)
13.11.2011 17:09 3,9 C 10,3 C 3,1 C 3,2 C 1,9 C 0,0 C 78 % 82 % 0 % 1034,0 hPa 0,0 l/m 0,0 km/h (0 Bft) N-NO 22 0 min 0,0 UV-I 0,4 C 1,9 C 0,0 km/h (0 Bft)
13.11.2011 17:14 3,6 C 10,3 C 2,8 C 3,0 C 1,7 C 0,0 C 79 % 82 % 0 % 1034,0 hPa 0,0 l/m 0,0 km/h (0 Bft) NW 315 0 min 0,0 UV-I 0,3 C 1,7 C 0,0 km/h (0 Bft)
13.11.2011 17:18 3,6 C 10,3 C 2,8 C 3,0 C 1,7 C 0,0 C 79 % 82 % 0 % 1034,0 hPa 0,0 l/m 0,0 km/h (0 Bft) NW 315 0 min 0,0 UV-I 0,3 C 1,7 C 0,0 km/h (0 Bft)
13.11.2011 17:25 3,2 C 10,5 C 2,6 C 2,6 C 1,4 C 0,0 C 80 % 83 % 0 % 1034,1 hPa 0,0 l/m 0,0 km/h (0 Bft) N-NO 22 0 min 0,0 UV-I 0,1 C 1,4 C 0,0 km/h (0 Bft)
13.11.2011 17:30 3,1 C 10,3 C 2,5 C 2,5 C 1,3 C 0,0 C 80 % 83 % 0 % 1034,1 hPa 0,0 l/m 0,0 km/h (0 Bft) N 360 0 min 0,0 UV-I -0,0 C 1,3 C 0,0 km/h (0 Bft)
13.11.2011 17:35 2,9 C 10,3 C 2,3 C 2,3 C 1,1 C 0,0 C 81 % 84 % 0 % 1034,1 hPa 0,0 l/m 0,0 km/h (0 Bft) NW 315 0 min 0,0 UV-I -0,0 C 1,1 C 0,0 km/h (0 Bft)
13.11.2011 17:40 2,6 C 10,3 C 2,1 C 2,0 C 0,9 C 0,0 C 81 % 84 % 0 % 1034,9 hPa 0,0 l/m 0,0 km/h (0 Bft) NW 315 0 min 0,0 UV-I -0,3 C 0,9 C 0,0 km/h (0 Bft)
13.11.2011 17:45 2,4 C 10,6 C 1,9 C 1,8 C 0,6 C 0,0 C 82 % 84 % 0 % 1034,9 hPa 0,0 l/m 0,0 km/h (0 Bft) N-NW 337 0 min 0,0 UV-I -0,4 C 0,6 C 0,0 km/h (0 Bft)
13.11.2011 17:50 2,2 C 10,5 C 1,9 C 1,7 C 0,6 C 0,0 C 82 % 84 % 0 % 1034,9 hPa 0,0 l/m 0,0 km/h (0 Bft) N-NW 337 0 min 0,0 UV-I -0,5 C 0,6 C 0,0 km/h (0 Bft)
13.11.2011 17:55 2,0 C 10,5 C 1,5 C 1,4 C 0,1 C 0,0 C 82 % 84 % 0 % 1034,9 hPa 0,0 l/m 0,0 km/h (0 Bft) N-NW 337 0 min 0,0 UV-I -0,7 C 0,1 C 0,0 km/h (0 Bft)
13.11.2011 18:00 1,9 C 10,6 C 1,3 C 1,3 C 0,0 C 0,0 C 82 % 85 % 0 % 1034,2 hPa 0,0 l/m 0,0 km/h (0 Bft) N-NW 337 0 min 0,0 UV-I -0,8 C 0,0 C 0,0 km/h (0 Bft)
13.11.2011 18:04 1,6 C 10,6 C 1,3 C 1,0 C -0,3 C 0,0 C 83 % 86 % 0 % 1034,2 hPa 0,0 l/m 0,0 km/h (0 Bft) N-NW 337 0 min 0,0 UV-I -1,0 C -0,3 C 0,0 km/h (0 Bft)
13.11.2011 18:09 1,5 C 10,7 C 1,3 C 0,9 C -0,4 C 0,0 C 83 % 86 % 0 % 1034,2 hPa 0,0 l/m 0,0 km/h (0 Bft) N-NW 337 0 min 0,0 UV-I -1,1 C -0,4 C 0,0 km/h (0 Bft)
13.11.2011 18:14 1,2 C 10,7 C 1,1 C 0,6 C -0,6 C 0,0 C 83 % 86 % 0 % 1034,2 hPa 0,0 l/m 0,0 km/h (0 Bft) N-NW 337 0 min 0,0 UV-I -1,4 C -0,6 C 0,0 km/h (0 Bft)
13.11.2011 18:19 1,2 C 10,7 C 1,1 C 0,6 C -0,6 C 0,0 C 83 % 86 % 0 % 1034,2 hPa 0,0 l/m 0,0 km/h (0 Bft) N-NW 337 0 min 0,0 UV-I -1,4 C -0,6 C 0,0 km/h (0 Bft)
13.11.2011 18:25 0,9 C 10,7 C 0,8 C 0,3 C -0,9 C 0,0 C 84 % 86 % 0 % 1034,6 hPa 0,0 l/m 0,0 km/h (0 Bft) NW 315 0 min 0,0 UV-I -1,5 C -0,9 C 0,0 km/h (0 Bft)
13.11.2011 18:30 0,9 C 10,7 C 0,8 C 0,3 C -0,9 C 0,0 C 84 % 87 % 0 % 1034,6 hPa 0,0 l/m 0,0 km/h (0 Bft) NW 315 0 min 0,0 UV-I -1,5 C -0,9 C 0,0 km/h (0 Bft)
13.11.2011 18:35 0,6 C 10,8 C 0,6 C 0,0 C -1,1 C 0,0 C 84 % 87 % 0 % 1034,6 hPa 0,0 l/m 0,0 km/h (0 Bft) NW 315 0 min 0,0 UV-I -1,8 C -1,1 C 0,0 km/h (0 Bft)
13.11.2011 18:40 0,5 C 10,7 C 0,5 C 0,0 C -1,1 C 0,0 C 85 % 87 % 0 % 1034,9 hPa 0,0 l/m 0,0 km/h (0 Bft) N-NO 22 0 min 0,0 UV-I -1,7 C -1,1 C 0,0 km/h (0 Bft)
13.11.2011 18:45 0,5 C 10,7 C 0,4 C 0,0 C -0,9 C 0,0 C 85 % 87 % 0 % 1034,9 hPa 0,0 l/m 0,0 km/h (0 Bft) N-NO 22 0 min 0,0 UV-I -1,7 C -0,9 C 0,0 km/h (0 Bft)
13.11.2011 18:50 0,4 C 10,7 C 0,3 C 0,0 C -0,9 C 0,0 C 86 % 87 % 0 % 1034,9 hPa 0,0 l/m 0,0 km/h (0 Bft) N-NO 22 0 min 0,0 UV-I -1,7 C -0,9 C 0,0 km/h (0 Bft)
13.11.2011 18:55 0,3 C 10,7 C 0,3 C -0,1 C -1,0 C 0,0 C 86 % 87 % 0 % 1034,9 hPa 0,0 l/m 0,0 km/h (0 Bft) NW 315 0 min 0,0 UV-I -1,8 C -1,0 C 0,0 km/h (0 Bft)
13.11.2011 19:00 0,3 C 10,7 C 0,3 C -0,2 C -1,2 C 0,0 C 86 % 87 % 0 % 1034,7 hPa 0,0 l/m 0,0 km/h (0 Bft) NW 315 0 min 0,0 UV-I -1,8 C -1,2 C 0,0 km/h (0 Bft)
13.11.2011 19:09 -0,1 C 10,7 C 0,0 C -0,6 C -1,6 C 0,0 C 86 % 88 % 0 % 1034,7 hPa 0,0 l/m 0,0 km/h (0 Bft) N 0 0 min 0,0 UV-I -2,2 C -1,6 C 0,0 km/h (0 Bft)
13.11.2011 19:10 -0,1 C 10,7 C 0,0 C -0,6 C -1,6 C 0,0 C 86 % 88 % 0 % 1034,7 hPa 0,0 l/m 0,0 km/h (0 Bft) N 0 0 min 0,0 UV-I -2,2 C -1,6 C 0,0 km/h (0 Bft)
13.11.2011 19:16 -0,2 C 10,7 C -0,1 C -0,7 C -1,7 C 0,0 C 87 % 88 % 0 % 1034,7 hPa 0,0 l/m 0,0 km/h (0 Bft) NW 315 0 min 0,0 UV-I -2,1 C -1,7 C 0,0 km/h (0 Bft)
13.11.2011 19:20 -0,3 C 10,8 C -0,1 C -0,8 C -1,7 C 0,0 C 86 % 88 % 0 % 1034,6 hPa 0,0 l/m 0,0 km/h (0 Bft) N-NO 22 0 min 0,0 UV-I -2,3 C -1,7 C 0,0 km/h (0 Bft)
13.11.2011 19:25 -0,4 C 10,8 C -0,3 C -0,8 C -1,6 C 0,0 C 86 % 88 % 0 % 1034,6 hPa 0,0 l/m 0,0 km/h (0 Bft) N-NO 22 0 min 0,0 UV-I -2,4 C -1,6 C 0,0 km/h (0 Bft)
13.11.2011 19:40 -0,7 C 10,8 C -0,5 C -1,2 C -2,2 C 0,0 C 87 % 88 % 0 % 1034,0 hPa 0,0 l/m 0,0 km/h (0 Bft) NW 315 0 min 0,0 UV-I -2,6 C -2,2 C 0,0 km/h (0 Bft)
13.11.2011 19:45 -0,9 C 10,8 C -0,5 C -1,4 C -2,4 C 0,0 C 87 % 88 % 0 % 1034,0 hPa 0,0 l/m 0,0 km/h (0 Bft) NW 315 0 min 0,0 UV-I -2,8 C -2,4 C 0,0 km/h (0 Bft)
13.11.2011 19:50 -0,9 C 10,8 C -0,5 C -1,4 C -2,4 C 0,0 C 87 % 88 % 0 % 1034,0 hPa 0,0 l/m 0,0 km/h (0 Bft) NW 315 0 min 0,0 UV-I -2,8 C -2,4 C 0,0 km/h (0 Bft)
13.11.2011 19:55 -1,1 C 10,8 C -0,5 C -1,5 C -2,4 C 0,0 C 87 % 88 % 0 % 1034,0 hPa 0,0 l/m 0,0 km/h (0 Bft) NW 315 0 min 0,0 UV-I -3,0 C -2,4 C 0,0 km/h (0 Bft)
13.11.2011 20:00 -1,1 C 10,8 C -0,5 C -1,6 C -2,5 C 0,0 C 87 % 89 % 0 % 1034,0 hPa 0,0 l/m 0,0 km/h (0 Bft) NW 315 0 min 0,0 UV-I -3,0 C -2,5 C 0,0 km/h (0 Bft)
13.11.2011 20:04 -1,2 C 10,8 C -0,7 C -1,7 C -2,6 C 0,0 C 87 % 89 % 0 % 1034,0 hPa 0,0 l/m 0,0 km/h (0 Bft) NW 315 0 min 0,0 UV-I -3,1 C -2,6 C 0,0 km/h (0 Bft)
13.11.2011 20:09 -1,2 C 10,8 C -0,9 C -1,7 C -2,7 C 0,0 C 88 % 88 % 0 % 1034,0 hPa 0,0 l/m 0,0 km/h (0 Bft) NW 315 0 min 0,0 UV-I -2,9 C -2,7 C 0,0 km/h (0 Bft)
13.11.2011 20:14 -1,2 C 10,8 C -0,9 C -1,7 C -2,6 C 0,0 C 88 % 89 % 0 % 1034,0 hPa 0,0 l/m 0,0 km/h (0 Bft) NW 315 0 min 0,0 UV-I -2,9 C -2,6 C 0,0 km/h (0 Bft)
13.11.2011 20:19 -1,2 C 10,8 C -1,0 C -1,7 C -2,7 C 0,0 C 88 % 89 % 0 % 1034,0 hPa 0,0 l/m 0,0 km/h (0 Bft) NW 315 0 min 0,0 UV-I -2,9 C -2,7 C 0,0 km/h (0 Bft)
13.11.2011 20:22 -1,2 C 10,8 C -1,0 C -1,7 C -2,7 C 0,0 C 88 % 89 % 0 % 1034,0 hPa 0,0 l/m 0,0 km/h (0 Bft) NW 315 0 min 0,0 UV-I -2,9 C -2,7 C 0,0 km/h (0 Bft)
13.11.2011 20:25 -1,3 C 10,8 C -0,9 C -1,8 C -2,7 C 0,0 C 88 % 89 % 0 % 1034,0 hPa 0,0 l/m 0,0 km/h (0 Bft) NW 315 0 min 0,0 UV-I -3,0 C -2,7 C 0,0 km/h (0 Bft)
13.11.2011 20:30 -1,3 C 10,8 C -1,1 C -1,8 C -2,8 C 0,0 C 88 % 89 % 0 % 1034,0 hPa 0,0 l/m 0,0 km/h (0 Bft) NW 315 0 min 0,0 UV-I -3,0 C -2,8 C 0,0 km/h (0 Bft)
13.11.2011 20:35 -1,5 C 10,8 C -1,2 C -2,0 C -2,9 C 0,0 C 88 % 89 % 0 % 1034,0 hPa 0,0 l/m 0,0 km/h (0 Bft) N-NO 22 0 min 0,0 UV-I -3,2 C -2,9 C 0,0 km/h (0 Bft)
13.11.2011 20:40 -1,5 C 10,7 C -1,3 C -1,9 C -2,7 C 0,0 C 88 % 89 % 0 % 1034,0 hPa 0,0 l/m 0,0 km/h (0 Bft) N-NO 22 0 min 0,0 UV-I -3,2 C -2,7 C 0,0 km/h (0 Bft)
13.11.2011 20:45 -1,5 C 10,7 C -1,3 C -1,8 C -2,4 C 0,0 C 89 % 89 % 0 % 1034,0 hPa 0,0 l/m 0,0 km/h (0 Bft) N-NO 22 0 min 0,0 UV-I -3,1 C -2,4 C 0,0 km/h (0 Bft)
13.11.2011 20:50 -1,4 C 10,7 C -1,3 C -1,7 C -2,4 C 0,0 C 89 % 90 % 0 % 1034,0 hPa 0,0 l/m 0,0 km/h (0 Bft) N-NO 22 0 min 0,0 UV-I -3,0 C -2,4 C 0,0 km/h (0 Bft)
13.11.2011 20:55 -1,3 C 10,7 C -1,3 C -1,7 C -2,6 C 0,0 C 89 % 90 % 0 % 1034,0 hPa 0,0 l/m 0,0 km/h (0 Bft) N-NO 22 0 min 0,0 UV-I -2,9 C -2,6 C 0,0 km/h (0 Bft)
13.11.2011 21:00 -1,5 C 10,7 C -1,3 C -1,9 C -2,8 C 0,0 C 89 % 90 % 0 % 1034,0 hPa 0,0 l/m 0,0 km/h (0 Bft) N-NO 22 0 min 0,0 UV-I -3,1 C -2,8 C 0,0 km/h (0 Bft)
13.11.2011 21:11 -1,5 C 10,7 C -1,5 C -1,9 C -2,8 C 0,0 C 89 % 90 % 0 % 1034,0 hPa 0,0 l/m 0,0 km/h (0 Bft) N 0 0 min 0,0 UV-I -3,1 C -2,8 C 0,0 km/h (0 Bft)
13.11.2011 21:20 -1,7 C 10,7 C -1,5 C -2,1 C -2,8 C 0,0 C 89 % 90 % 0 % 1033,9 hPa 0,0 l/m 0,0 km/h (0 Bft) N-NO 22 0 min 0,0 UV-I -3,3 C -2,8 C 0,0 km/h (0 Bft)
13.11.2011 21:25 -1,7 C 10,7 C -1,5 C -2,1 C -2,9 C 0,0 C 89 % 90 % 0 % 1033,9 hPa 0,0 l/m 0,0 km/h (0 Bft) NW 315 0 min 0,0 UV-I -3,3 C -2,9 C 0,0 km/h (0 Bft)
13.11.2011 21:30 -1,7 C 10,7 C -1,5 C -2,1 C -2,9 C 0,0 C 89 % 90 % 0 % 1033,9 hPa 0,0 l/m 0,2 km/h (0 Bft) NW 315 0 min 0,0 UV-I -3,3 C -2,9 C 0,0 km/h (0 Bft)
13.11.2011 21:35 -1,7 C 10,7 C -1,5 C -2,2 C -3,1 C 0,0 C 89 % 90 % 0 % 1033,9 hPa 0,0 l/m 0,2 km/h (0 Bft) NW 315 0 min 0,0 UV-I -3,3 C -3,1 C 0,0 km/h (0 Bft)
13.11.2011 21:40 -1,9 C 10,7 C -1,6 C -2,3 C -3,2 C 0,0 C 89 % 90 % 0 % 1033,9 hPa 0,0 l/m 0,0 km/h (0 Bft) NW 315 0 min 0,0 UV-I -3,5 C -3,2 C 0,0 km/h (0 Bft)
13.11.2011 21:45 -2,0 C 10,7 C -1,7 C -2,5 C -3,4 C 0,0 C 89 % 90 % 0 % 1033,9 hPa 0,0 l/m 0,0 km/h (0 Bft) NW 315 0 min 0,0 UV-I -3,6 C -3,4 C 0,0 km/h (0 Bft)
13.11.2011 21:50 -2,1 C 10,7 C -1,7 C -2,5 C -3,4 C 0,0 C 89 % 90 % 0 % 1033,9 hPa 0,0 l/m 0,0 km/h (0 Bft) NW 315 0 min 0,0 UV-I -3,7 C -3,4 C 0,0 km/h (0 Bft)
13.11.2011 21:55 -2,1 C 10,6 C -1,7 C -2,5 C -3,2 C 0,0 C 89 % 90 % 0 % 1033,9 hPa 0,0 l/m 0,0 km/h (0 Bft) NW 315 0 min 0,0 UV-I -3,7 C -3,2 C 0,0 km/h (0 Bft)
13.11.2011 22:00 -2,1 C 10,6 C -1,7 C -2,4 C -3,0 C 0,0 C 89 % 90 % 0 % 1033,9 hPa 0,0 l/m 0,0 km/h (0 Bft) NW 315 0 min 0,0 UV-I -3,7 C -3,0 C 0,0 km/h (0 Bft)
13.11.2011 22:04 -2,1 C 10,6 C -1,8 C -2,4 C -3,1 C 0,0 C 89 % 90 % 0 % 1033,9 hPa 0,0 l/m 0,0 km/h (0 Bft) N-NO 22 0 min 0,0 UV-I -3,7 C -3,1 C 0,0 km/h (0 Bft)
13.11.2011 22:09 -2,1 C 10,6 C -1,7 C -2,4 C -3,1 C 0,0 C 89 % 90 % 0 % 1033,9 hPa 0,0 l/m 0,0 km/h (0 Bft) N-NO 22 0 min 0,0 UV-I -3,7 C -3,1 C 0,0 km/h (0 Bft)
13.11.2011 22:14 -2,1 C 10,6 C -1,9 C -2,4 C -3,1 C 0,0 C 90 % 90 % 0 % 1033,9 hPa 0,0 l/m 0,0 km/h (0 Bft) N-NO 22 0 min 0,0 UV-I -3,5 C -3,1 C 0,0 km/h (0 Bft)
13.11.2011 22:18 -2,1 C 10,6 C -1,9 C -2,4 C -3,1 C 0,0 C 90 % 90 % 0 % 1033,9 hPa 0,0 l/m 0,0 km/h (0 Bft) N-NO 22 0 min 0,0 UV-I -3,5 C -3,1 C 0,0 km/h (0 Bft)
13.11.2011 22:25 -2,1 C 10,6 C -1,9 C -2,4 C -3,1 C 0,0 C 90 % 90 % 0 % 1033,9 hPa 0,0 l/m 0,0 km/h (0 Bft) N-NO 22 0 min 0,0 UV-I -3,5 C -3,1 C 0,0 km/h (0 Bft)
13.11.2011 22:30 -2,2 C 10,6 C -2,0 C -2,5 C -3,2 C 0,0 C 90 % 90 % 0 % 1033,9 hPa 0,0 l/m 0,0 km/h (0 Bft) NW 315 0 min 0,0 UV-I -3,6 C -3,2 C 0,0 km/h (0 Bft)
13.11.2011 22:35 -2,3 C 10,6 C -1,9 C -2,6 C -3,3 C 0,0 C 90 % 90 % 0 % 1033,9 hPa 0,0 l/m 0,0 km/h (0 Bft) NW 315 0 min 0,0 UV-I -3,7 C -3,3 C 0,0 km/h (0 Bft)
13.11.2011 22:40 -2,3 C 10,6 C -2,0 C -2,6 C -3,3 C 0,0 C 90 % 90 % 0 % 1033,3 hPa 0,0 l/m 0,0 km/h (0 Bft) N-NO 22 0 min 0,0 UV-I -3,7 C -3,3 C 0,0 km/h (0 Bft)
13.11.2011 22:45 -2,3 C 10,6 C -2,1 C -2,6 C -3,3 C 0,0 C 90 % 90 % 0 % 1033,3 hPa 0,0 l/m 0,0 km/h (0 Bft) N-NO 22 0 min 0,0 UV-I -3,7 C -3,3 C 0,0 km/h (0 Bft)
13.11.2011 22:50 -2,4 C 10,6 C -2,1 C -2,7 C -3,3 C 0,0 C 90 % 90 % 0 % 1033,3 hPa 0,0 l/m 0,0 km/h (0 Bft) N-NO 22 0 min 0,0 UV-I -3,8 C -3,3 C 0,0 km/h (0 Bft)
13.11.2011 22:55 -2,4 C 10,5 C -2,1 C -2,6 C -3,1 C 0,0 C 90 % 90 % 0 % 1033,3 hPa 0,0 l/m 0,0 km/h (0 Bft) N-NO 22 0 min 0,0 UV-I -3,8 C -3,1 C 0,0 km/h (0 Bft)
13.11.2011 23:00 -2,3 C 10,5 C -2,1 C -2,6 C -3,1 C 0,0 C 90 % 90 % 0 % 1033,3 hPa 0,0 l/m 0,0 km/h (0 Bft) N-NO 22 0 min 0,0 UV-I -3,7 C -3,1 C 0,0 km/h (0 Bft)
13.11.2011 23:04 -2,3 C 10,5 C -2,1 C -2,6 C -3,1 C 0,0 C 90 % 91 % 0 % 1033,3 hPa 0,0 l/m 0,0 km/h (0 Bft) N-NO 22 0 min 0,0 UV-I -3,7 C -3,1 C 0,0 km/h (0 Bft)
13.11.2011 23:09 -2,3 C 10,5 C -2,1 C -2,6 C -3,1 C 0,0 C 90 % 91 % 0 % 1033,3 hPa 0,0 l/m 0,0 km/h (0 Bft) N-NO 22 0 min 0,0 UV-I -3,7 C -3,1 C 0,0 km/h (0 Bft)
13.11.2011 23:14 -2,3 C 10,5 C -2,1 C -2,6 C -3,3 C 0,0 C 90 % 91 % 0 % 1033,3 hPa 0,0 l/m 0,0 km/h (0 Bft) W-NW 292 0 min 0,0 UV-I -3,7 C -3,3 C 0,0 km/h (0 Bft)
13.11.2011 23:18 -2,3 C 10,5 C -2,1 C -2,6 C -3,3 C 0,0 C 90 % 91 % 0 % 1033,3 hPa 0,0 l/m 0,0 km/h (0 Bft) W-NW 292 0 min 0,0 UV-I -3,7 C -3,3 C 0,0 km/h (0 Bft)
13.11.2011 23:25 -2,5 C 10,5 C -2,1 C -2,8 C -3,5 C 0,0 C 90 % 91 % 0 % 1033,3 hPa 0,0 l/m 0,0 km/h (0 Bft) W-NW 292 0 min 0,0 UV-I -3,9 C -3,5 C 0,0 km/h (0 Bft)
13.11.2011 23:30 -2,5 C 10,5 C -2,1 C -2,9 C -3,6 C 0,0 C 90 % 91 % 0 % 1033,3 hPa 0,0 l/m 0,0 km/h (0 Bft) W-NW 292 0 min 0,0 UV-I -3,9 C -3,6 C 0,0 km/h (0 Bft)
13.11.2011 23:35 -2,5 C 10,5 C -2,1 C -2,9 C -3,7 C 0,0 C 90 % 91 % 0 % 1033,3 hPa 0,0 l/m 0,0 km/h (0 Bft) W-NW 292 0 min 0,0 UV-I -3,9 C -3,7 C 0,0 km/h (0 Bft)
13.11.2011 23:40 -2,5 C 10,5 C -2,1 C -2,9 C -3,6 C 0,0 C 90 % 91 % 0 % 1032,6 hPa 0,0 l/m 0,0 km/h (0 Bft) W-NW 292 0 min 0,0 UV-I -3,9 C -3,6 C 0,0 km/h (0 Bft)
13.11.2011 23:45 -2,7 C 10,5 C -2,3 C -3,0 C -3,6 C 0,0 C 90 % 91 % 0 % 1032,6 hPa 0,0 l/m 0,0 km/h (0 Bft) N-NO 22 0 min 0,0 UV-I -4,1 C -3,6 C 0,0 km/h (0 Bft)
13.11.2011 23:50 -2,7 C 10,5 C -2,3 C -3,0 C -3,7 C 0,0 C 90 % 91 % 0 % 1032,6 hPa 0,0 l/m 0,0 km/h (0 Bft) N-NO 22 0 min 0,0 UV-I -4,1 C -3,7 C 0,0 km/h (0 Bft)
13.11.2011 23:55 -2,7 C 10,5 C -2,3 C -3,0 C -3,7 C 0,0 C 90 % 91 % 0 % 1032,6 hPa 0,0 l/m 0,0 km/h (0 Bft) W 270 0 min 0,0 UV-I -4,1 C -3,7 C 0,0 km/h (0 Bft)
_ Min-Zeit 07:25 10:45 06:25 07:25 07:04 00:00 14:45 14:25 00:00 23:40 - 00:00 - - - 00:00 07:25 07:04 00:00
Minimum _ -4,6 C 9,4 C -4,1 C -5,0 C -5,7 C 0,0 C 64 % 64 % 0 % 1032,6 hPa - 0,0 km/h (0 Bft) - - - 0,0 UV-I -6,0 C -5,7 C 0,0 km/h (0 Bft)
_ Max-Zeit 14:40 00:00 14:14 14:25 14:25 11:04 10:10 10:25 10:55 00:00 00:00 13:15 - - 14:25 00:00 14:40 14:25 13:20
Maximum _ 10,1 C 10,8 C 12,9 C 14,4 C 14,4 C 4,8 C 93 % 93 % 100 % 1038,1 hPa 0,0 l/m 3,1 km/h
SW (1 Bft)
- - 7 min 0,0 UV-I 3,8 C 14,4 C 5,5 km/h
S (1 Bft)
Durchschnitt _ 0,1 C 10,2 C 0,1 C 0,6 C 0,1 C 0,8 C 85 % 87 % 19 % 1035,7 hPa #0,0 l/m 0,3 km/h (0 Bft) W-SW - #3:12 h 0,0 UV-I -2,2 C 0,1 C 0,4 km/h (0 Bft)
2011 www.wetterstation-wechselburg.de